Météo par heure à Kistowo

Ce jour, 6 Mars, Samedi

Heure Température Précipitation Vent Pression Humidité
00:00 -1°C° 0 mm 1 m/s 749 mmHg 72%
01:00 -1°C° 0 mm 1 m/s 750 mmHg 72%
02:00 -3°C° 0 mm 2 m/s 749 mmHg 71%
03:00 -3°C° 0 mm 2 m/s 749 mmHg 71%
04:00 -3°C° 0 mm 2 m/s 749 mmHg 70%
05:00 -3°C° 0 mm 2 m/s 749 mmHg 70%
06:00 -4°C° 0 mm 3 m/s 749 mmHg 71%
07:00 -4°C° 0 mm 3 m/s 749 mmHg 71%
08:00 -2°C° 0 mm 4 m/s 749 mmHg 66%
09:00 -1°C° 0 mm 4 m/s 749 mmHg 60%
10:00 0°C° 0 mm 5 m/s 749 mmHg 55%
11:00 0°C° 0 mm 5 m/s 749 mmHg 53%
12:00 +1°C° 0 mm 6 m/s 748 mmHg 51%
13:00 +1°C° 0 mm 6 m/s 748 mmHg 48%
14:00 0°C° 0 mm 7 m/s 747 mmHg 61%
15:00 -1°C° 0 mm 7 m/s 747 mmHg 74%
16:00 -2°C° 0 mm 7 m/s 746 mmHg 87%
17:00 -2°C° 0 mm 7 m/s 746 mmHg 86%
18:00 -2°C° 0 mm 7 m/s 745 mmHg 85%
19:00 -2°C° 0 mm 7 m/s 745 mmHg 83%
20:00 -2°C° 0 mm 8 m/s 745 mmHg 83%
21:00 -2°C° 0 mm 8 m/s 744 mmHg 82%
22:00 -2°C° 0 mm 8 m/s 744 mmHg 81%
23:00 -3°C° 0 mm 9 m/s 743 mmHg 82%

Demain, 7 Mars, Dimanche

Heure Température Précipitation Vent Pression Humidité
00:00 -3°C° 0 mm 9 m/s 743 mmHg 83%
01:00 -3°C° 0 mm 9 m/s 743 mmHg 84%
02:00 -3°C° 0 mm 9 m/s 742 mmHg 85%
03:00 -3°C° 0 mm 9 m/s 742 mmHg 87%
04:00 -3°C° 0 mm 9 m/s 741 mmHg 88%
05:00 -3°C° 0.1 mm 9 m/s 741 mmHg 90%
06:00 -2°C° 0.1 mm 8 m/s 741 mmHg 92%
07:00 -2°C° 0.1 mm 8 m/s 741 mmHg 93%
08:00 -2°C° 0.2 mm 8 m/s 741 mmHg 94%
09:00 -2°C° 0.2 mm 8 m/s 741 mmHg 94%
10:00 -2°C° 0.2 mm 8 m/s 740 mmHg 95%
11:00 -2°C° 0.5 mm 8 m/s 740 mmHg 95%
12:00 -2°C° 0.5 mm 7 m/s 740 mmHg 95%
13:00 -2°C° 0.5 mm 6 m/s 740 mmHg 95%
14:00 -2°C° 0.7 mm 5 m/s 740 mmHg 92%
15:00 -2°C° 0.7 mm 4 m/s 740 mmHg 90%
16:00 -1°C° 0.7 mm 3 m/s 740 mmHg 87%
17:00 -2°C° 0.1 mm 3 m/s 740 mmHg 88%
18:00 -3°C° 0.1 mm 2 m/s 740 mmHg 89%
19:00 -3°C° 0.1 mm 2 m/s 740 mmHg 89%
20:00 -3°C° 0 mm 2 m/s 741 mmHg 87%
21:00 -3°C° 0 mm 2 m/s 741 mmHg 85%
22:00 -3°C° 0 mm 2 m/s 741 mmHg 82%
23:00 -3°C° 0 mm 2 m/s 741 mmHg 80%

Après-demain, 8 Mars, Lundi

Heure Température Précipitation Vent Pression Humidité
00:00 -3°C° 0 mm 2 m/s 742 mmHg 77%
01:00 -3°C° 0 mm 2 m/s 742 mmHg 75%
02:00 -3°C° 0 mm 2 m/s 742 mmHg 74%
03:00 -4°C° 0 mm 2 m/s 742 mmHg 73%
04:00 -4°C° 0 mm 2 m/s 742 mmHg 73%
05:00 -3°C° 0 mm 2 m/s 742 mmHg 73%
06:00 -4°C° 0 mm 3 m/s 743 mmHg 74%
07:00 -4°C° 0 mm 3 m/s 743 mmHg 75%
08:00 -2°C° 0 mm 3 m/s 744 mmHg 71%
09:00 -3°C° 0 mm 4 m/s 744 mmHg 68%
10:00 -2°C° 0 mm 4 m/s 744 mmHg 64%
11:00 -2°C° 0 mm 4 m/s 745 mmHg 63%
12:00 -1°C° 0 mm 4 m/s 745 mmHg 62%
13:00 -1°C° 0 mm 4 m/s 746 mmHg 61%
14:00 -2°C° 0 mm 4 m/s 746 mmHg 62%
15:00 -1°C° 0 mm 3 m/s 745 mmHg 63%
16:00 -2°C° 0 mm 3 m/s 745 mmHg 63%
17:00 -2°C° 0 mm 2 m/s 746 mmHg 67%
18:00 -3°C° 0 mm 2 m/s 746 mmHg 71%
19:00 -2°C° 0 mm 1 m/s 746 mmHg 75%
20:00 -2°C° 0 mm 1 m/s 746 mmHg 74%
21:00 -2°C° 0 mm 1 m/s 746 mmHg 72%
22:00 -2°C° 0 mm 1 m/s 746 mmHg 71%
23:00 -2°C° 0 mm 1 m/s 746 mmHg 71%

9 Mars, Mardi

Heure Température Précipitation Vent Pression Humidité
00:00 -2°C° 0 mm 1 m/s 746 mmHg 70%
01:00 -2°C° 0 mm 1 m/s 746 mmHg 70%
02:00 -4°C° 0 mm 2 m/s 746 mmHg 70%
03:00 -4°C° 0 mm 2 m/s 745 mmHg 71%
04:00 -4°C° 0 mm 2 m/s 745 mmHg 72%
05:00 -4°C° 0 mm 2 m/s 745 mmHg 72%
06:00 -5°C° 0 mm 3 m/s 745 mmHg 72%
07:00 -5°C° 0 mm 3 m/s 745 mmHg 72%
08:00 -4°C° 0 mm 3 m/s 745 mmHg 70%
09:00 -2°C° 0 mm 3 m/s 744 mmHg 69%
10:00 -2°C° 0 mm 3 m/s 744 mmHg 67%
11:00 -1°C° 0 mm 3 m/s 744 mmHg 63%
12:00 0°C° 0 mm 3 m/s 744 mmHg 60%
13:00 0°C° 0 mm 3 m/s 744 mmHg 56%
14:00 0°C° 0 mm 3 m/s 744 mmHg 59%
15:00 0°C° 0 mm 3 m/s 743 mmHg 62%
16:00 0°C° 0 mm 3 m/s 743 mmHg 66%
17:00 -1°C° 0.1 mm 3 m/s 743 mmHg 75%
18:00 -2°C° 0.1 mm 3 m/s 743 mmHg 85%
19:00 -2°C° 0.1 mm 3 m/s 743 mmHg 94%
20:00 -2°C° 0.2 mm 3 m/s 743 mmHg 95%
21:00 -2°C° 0.2 mm 3 m/s 742 mmHg 95%
22:00 -2°C° 0.2 mm 3 m/s 742 mmHg 96%
23:00 -2°C° 0.3 mm 3 m/s 742 mmHg 97%

10 Mars, Mercredi

Heure Température Précipitation Vent Pression Humidité
00:00 -1°C° 0.3 mm 2 m/s 742 mmHg 97%
01:00 -1°C° 0.3 mm 2 m/s 742 mmHg 98%
02:00 -1°C° 0.1 mm 2 m/s 742 mmHg 98%
03:00 -1°C° 0.1 mm 2 m/s 742 mmHg 98%
04:00 +1°C° 0.1 mm 1 m/s 741 mmHg 98%
05:00 +1°C° 0.1 mm 1 m/s 741 mmHg 98%
06:00 +1°C° 0.1 mm 1 m/s 742 mmHg 98%
07:00 +1°C° 0.1 mm 1 m/s 742 mmHg 98%
08:00 +1°C° 0.1 mm 2 m/s 742 mmHg 98%
09:00 +1°C° 0.1 mm 2 m/s 742 mmHg 97%
10:00 +1°C° 0.1 mm 2 m/s 742 mmHg 97%
11:00 +2°C° 0 mm 2 m/s 742 mmHg 94%
12:00 +2°C° 0 mm 2 m/s 742 mmHg 92%
13:00 +3°C° 0 mm 2 m/s 742 mmHg 89%
14:00 +3°C° 0 mm 2 m/s 742 mmHg 88%
15:00 +3°C° 0 mm 2 m/s 742 mmHg 87%
16:00 +3°C° 0 mm 2 m/s 741 mmHg 86%
17:00 +3°C° 0 mm 2 m/s 741 mmHg 89%
18:00 +2°C° 0 mm 2 m/s 741 mmHg 92%
19:00 0°C° 0 mm 3 m/s 740 mmHg 95%
20:00 0°C° 0 mm 3 m/s 740 mmHg 94%
21:00 0°C° 0 mm 3 m/s 740 mmHg 93%
22:00 -1°C° 0 mm 4 m/s 740 mmHg 92%
23:00 -1°C° 0 mm 4 m/s 739 mmHg 92%

11 Mars, Jeudi

Heure Température Précipitation Vent Pression Humidité
00:00 -1°C° 0 mm 5 m/s 738 mmHg 91%
01:00 -1°C° 0 mm 5 m/s 737 mmHg 91%
02:00 0°C° 0 mm 5 m/s 736 mmHg 89%
03:00 -1°C° 0 mm 6 m/s 735 mmHg 88%
04:00 -1°C° 0 mm 6 m/s 734 mmHg 87%
05:00 +1°C° 0.5 mm 6 m/s 734 mmHg 89%
06:00 0°C° 0.5 mm 7 m/s 733 mmHg 91%
07:00 0°C° 0.5 mm 7 m/s 732 mmHg 93%
08:00 +2°C° 0.4 mm 7 m/s 731 mmHg 92%
09:00 +2°C° 0.4 mm 7 m/s 731 mmHg 91%
10:00 +3°C° 0.4 mm 7 m/s 730 mmHg 91%
11:00 +4°C° 0.3 mm 7 m/s 730 mmHg 89%
12:00 +4°C° 0.3 mm 7 m/s 730 mmHg 87%
13:00 +5°C° 0.3 mm 7 m/s 730 mmHg 86%
14:00 +4°C° 0.5 mm 8 m/s 730 mmHg 83%
15:00 +3°C° 0.5 mm 9 m/s 730 mmHg 81%
16:00 +2°C° 0.5 mm 9 m/s 730 mmHg 78%
17:00 +2°C° 0.2 mm 8 m/s 730 mmHg 79%
18:00 +2°C° 0.2 mm 7 m/s 731 mmHg 80%
19:00 +1°C° 0.2 mm 6 m/s 731 mmHg 80%
20:00 +1°C° 0.1 mm 6 m/s 732 mmHg 80%
21:00 +1°C° 0.1 mm 6 m/s 732 mmHg 80%
22:00 +1°C° 0.1 mm 6 m/s 732 mmHg 80%
23:00 0°C° 0 mm 7 m/s 732 mmHg 80%
Voir plus

Nous avons besoin de votre consentement

Meteoprog et ses fournisseurs de services peuvent stocker et accéder à des données personnelles telles que des cookies, des identifiants d'appareils ou d'autres technologies similaires sur votre appareil et traiter ces données pour personnaliser le contenu et les publicités, ainsi que pour fournir des fonctionnalités de médias sociaux et analyser le trafic.

  • Stocker et/ou accéder à des informations sur votre appareil

    Des cookies, des identifiants d'appareils ou d'autres informations peuvent être stockés ou accessibles sur votre appareil aux fins indiquées ci-dessus.

  • Annonces et contenus personnalisés, mesure des annonces et des contenus, connaissance de l'audience et développement de produits

    Les annonces et le contenu peuvent être personnalisés en fonction d'un profil. D'autres données peuvent être ajoutées pour mieux personnaliser les annonces et le contenu. Les performances des publicités et du contenu peuvent être mesurées. Il est possible d'obtenir des informations sur le public qui a vu les publicités et le contenu. Ces données peuvent être utilisées pour développer ou améliorer l'expérience de l'utilisateur, les systèmes et les logiciels.

En cliquant sur "J'accepte", vous autorisez l'utilisation de cookies, des identifiants d'appareils, des balises web ou d'autres technologies similaires. Vos paramètres peuvent être modifiés dans le navigateur de votre appareil.

Dans certains cas, des intérêts légitimes peuvent être invoqués plutôt qu'un consentement. Vous pouvez en savoir plus à ce sujet dans notre Politique de confidentialité et de cookies.